Blue Star 1 — SWET — position and weather

sailwx.info

Track history (hours):
 
Tides and Currents Weather Stations Pressure Air Temp Water Temp Dewpoint Dewpoint Depression Visibility Wind Speed Wind Dir Waves Ship Positions

Blue Star 1

Last reported at 2014-Nov-21 19:07 UTC. Time now 2014-Nov-22 01:31 UTC.
Position N 37°39' E 023°46'.

Length 176 m; draft 6.5 m.

Type: Passenger vessel. MMSI: 239710000.

Date/timePositionNaut miles runAvg speedWind from/ knotsBaromVisibWave heightAir tempDewpointWater temp
2014-Nov-21 19:07N 37°39' E 023°46'1018.6
2014-Nov-21 18:34N 37°47' E 023°38'9 9.1
2014-Nov-21 17:33N 37°56' E 023°38'0 0.0
2014-Nov-21 16:34N 37°56' E 023°38'9 8.7
2014-Nov-21 15:34N 37°48' E 023°41'10 0.5
2014-Nov-20 19:09N 37°39' E 023°45'1118.5
2014-Nov-20 18:33N 37°49' E 023°38'8 7.7
2014-Nov-20 17:31N 37°56' E 023°38'0 0.0
2014-Nov-20 16:31N 37°56' E 023°38'1818.2
2014-Nov-20 15:30N 37°40' E 023°49'6 0.3
2014-Nov-19 19:31N 37°37' E 023°55'1717.8
2014-Nov-19 18:33N 37°48' E 023°39'9 8.4
2014-Nov-19 17:33N 37°56' E 023°38'0 0.0
2014-Nov-19 16:32N 37°56' E 023°38'0 0.0
2014-Nov-19 15:32N 37°56' E 023°38'0 0.0
2014-Nov-19 14:32N 37°56' E 023°38'0 0.0
2014-Nov-19 13:32N 37°56' E 023°38'0 0.0
2014-Nov-19 12:32N 37°56' E 023°38'0 0.0
2014-Nov-19 11:32N 37°56' E 023°38'0 0.0
2014-Nov-19 10:32N 37°56' E 023°38'0 0.0
2014-Nov-19 09:32N 37°56' E 023°38'0 0.0
2014-Nov-19 08:32N 37°56' E 023°38'0 0.0
2014-Nov-19 07:32N 37°56' E 023°38'0 0.0
2014-Nov-19 06:31N 37°56' E 023°38'0 0.0
2014-Nov-19 05:31N 37°56' E 023°38'5 4.8
2014-Nov-19 04:33N 37°52' E 023°39'17 0.5
2014-Nov-17 19:22N 37°38' E 023°51'1518.3
2014-Nov-17 18:33N 37°49' E 023°37'8 7.8
2014-Nov-17 17:34N 37°56' E 023°38'0 0.0
2014-Nov-17 16:32N 37°56' E 023°38'0 0.0
2014-Nov-17 15:32N 37°56' E 023°38'0 0.0
2014-Nov-17 14:32N 37°56' E 023°38'0 0.0
2014-Nov-17 13:32N 37°56' E 023°38'0 0.0
2014-Nov-17 12:31N 37°56' E 023°38'0 0.0
2014-Nov-17 11:31N 37°56' E 023°38'0 0.0
2014-Nov-17 10:31N 37°56' E 023°38'0 0.0
2014-Nov-17 09:31N 37°56' E 023°38'0 0.0
2014-Nov-17 08:31N 37°56' E 023°38'0 0.0
2014-Nov-17 07:31N 37°56' E 023°38'0 0.0
2014-Nov-17 06:31N 37°56' E 023°38'0 0.0
2014-Nov-17 05:31N 37°56' E 023°38'1 1.2
2014-Nov-17 04:33N 37°55' E 023°37'  
2014-Nov-14 19:15N 37°39' E 023°47'1318.3
2014-Nov-14 18:33N 37°49' E 023°37'8 7.5
2014-Nov-14 17:32N 37°56' E 023°38'0 0.0
2014-Nov-14 16:32N 37°56' E 023°38'9 9.3
2014-Nov-14 15:34N 37°48' E 023°41'10 0.5
2014-Nov-13 19:11N 37°39' E 023°47'1118.2
2014-Nov-13 18:33N 37°48' E 023°38'9 8.6
2014-Nov-13 17:33N 37°56' E 023°38'0 0.0
2014-Nov-13 16:33N 37°56' E 023°38'1414.1
2014-Nov-13 15:33N 37°43' E 023°44'7 0.3
2014-Nov-12 19:19N 37°38' E 023°50'1317.8
2014-Nov-12 18:34N 37°48' E 023°38'9 8.2
2014-Nov-12 17:31N 37°56' E 023°38'0 0.0
2014-Nov-12 16:31N 37°56' E 023°38'0 0.0
2014-Nov-12 15:31N 37°56' E 023°38'0 0.0
2014-Nov-12 14:31N 37°56' E 023°38'0 0.0
2014-Nov-12 13:34N 37°56' E 023°38'0 0.0
2014-Nov-12 12:33N 37°56' E 023°38'0 0.0
2014-Nov-12 11:33N 37°56' E 023°38'0 0.0
2014-Nov-12 10:33N 37°56' E 023°38'0 0.0
2014-Nov-12 09:33N 37°56' E 023°38'0 0.0
2014-Nov-12 08:33N 37°56' E 023°38'0 0.0
2014-Nov-12 07:33N 37°56' E 023°38'0 0.0
2014-Nov-12 06:33N 37°56' E 023°38'0 0.0
2014-Nov-12 05:33N 37°56' E 023°38'5 5.3
2014-Nov-12 04:33N 37°51' E 023°39'  
Track history (hours):
 
Tides and Currents Weather Stations Pressure Air Temp Water Temp Dewpoint Dewpoint Depression Visibility Wind Speed Wind Dir Waves Ship Positions

Blue Star 1

Last reported at 2014-Nov-21 19:07 UTC. Time now 2014-Nov-22 01:31 UTC.
Position N 37°39' E 023°46'.

Length 176 m; draft 6.5 m.

Type: Passenger vessel. MMSI: 239710000.

Date/timePositionNaut miles runAvg speedWind from/ knotsBaromVisibWave heightAir tempDewpointWater temp
2014-Nov-21 19:07N 37°39' E 023°46'1018.6
2014-Nov-21 18:34N 37°47' E 023°38'9 9.1
2014-Nov-21 17:33N 37°56' E 023°38'0 0.0
2014-Nov-21 16:34N 37°56' E 023°38'9 8.7
2014-Nov-21 15:34N 37°48' E 023°41'10 0.5
2014-Nov-20 19:09N 37°39' E 023°45'1118.5
2014-Nov-20 18:33N 37°49' E 023°38'8 7.7
2014-Nov-20 17:31N 37°56' E 023°38'0 0.0
2014-Nov-20 16:31N 37°56' E 023°38'1818.2
2014-Nov-20 15:30N 37°40' E 023°49'6 0.3
2014-Nov-19 19:31N 37°37' E 023°55'1717.8
2014-Nov-19 18:33N 37°48' E 023°39'9 8.4
2014-Nov-19 17:33N 37°56' E 023°38'0 0.0
2014-Nov-19 16:32N 37°56' E 023°38'0 0.0
2014-Nov-19 15:32N 37°56' E 023°38'0 0.0
2014-Nov-19 14:32N 37°56' E 023°38'0 0.0
2014-Nov-19 13:32N 37°56' E 023°38'0 0.0
2014-Nov-19 12:32N 37°56' E 023°38'0 0.0
2014-Nov-19 11:32N 37°56' E 023°38'0 0.0
2014-Nov-19 10:32N 37°56' E 023°38'0 0.0
2014-Nov-19 09:32N 37°56' E 023°38'0 0.0
2014-Nov-19 08:32N 37°56' E 023°38'0 0.0
2014-Nov-19 07:32N 37°56' E 023°38'0 0.0
2014-Nov-19 06:31N 37°56' E 023°38'0 0.0
2014-Nov-19 05:31N 37°56' E 023°38'5 4.8
2014-Nov-19 04:33N 37°52' E 023°39'17 0.5
2014-Nov-17 19:22N 37°38' E 023°51'1518.3
2014-Nov-17 18:33N 37°49' E 023°37'8 7.8
2014-Nov-17 17:34N 37°56' E 023°38'0 0.0
2014-Nov-17 16:32N 37°56' E 023°38'0 0.0
2014-Nov-17 15:32N 37°56' E 023°38'0 0.0
2014-Nov-17 14:32N 37°56' E 023°38'0 0.0
2014-Nov-17 13:32N 37°56' E 023°38'0 0.0
2014-Nov-17 12:31N 37°56' E 023°38'0 0.0
2014-Nov-17 11:31N 37°56' E 023°38'0 0.0
2014-Nov-17 10:31N 37°56' E 023°38'0 0.0
2014-Nov-17 09:31N 37°56' E 023°38'0 0.0
2014-Nov-17 08:31N 37°56' E 023°38'0 0.0
2014-Nov-17 07:31N 37°56' E 023°38'0 0.0
2014-Nov-17 06:31N 37°56' E 023°38'0 0.0
2014-Nov-17 05:31N 37°56' E 023°38'1 1.2
2014-Nov-17 04:33N 37°55' E 023°37'  
2014-Nov-14 19:15N 37°39' E 023°47'1318.3
2014-Nov-14 18:33N 37°49' E 023°37'8 7.5
2014-Nov-14 17:32N 37°56' E 023°38'0 0.0
2014-Nov-14 16:32N 37°56' E 023°38'9 9.3
2014-Nov-14 15:34N 37°48' E 023°41'10 0.5
2014-Nov-13 19:11N 37°39' E 023°47'1118.2
2014-Nov-13 18:33N 37°48' E 023°38'9 8.6
2014-Nov-13 17:33N 37°56' E 023°38'0 0.0
2014-Nov-13 16:33N 37°56' E 023°38'1414.1
2014-Nov-13 15:33N 37°43' E 023°44'7 0.3
2014-Nov-12 19:19N 37°38' E 023°50'1317.8
2014-Nov-12 18:34N 37°48' E 023°38'9 8.2
2014-Nov-12 17:31N 37°56' E 023°38'0 0.0
2014-Nov-12 16:31N 37°56' E 023°38'0 0.0
2014-Nov-12 15:31N 37°56' E 023°38'0 0.0
2014-Nov-12 14:31N 37°56' E 023°38'0 0.0
2014-Nov-12 13:34N 37°56' E 023°38'0 0.0
2014-Nov-12 12:33N 37°56' E 023°38'0 0.0
2014-Nov-12 11:33N 37°56' E 023°38'0 0.0
2014-Nov-12 10:33N 37°56' E 023°38'0 0.0
2014-Nov-12 09:33N 37°56' E 023°38'0 0.0
2014-Nov-12 08:33N 37°56' E 023°38'0 0.0
2014-Nov-12 07:33N 37°56' E 023°38'0 0.0
2014-Nov-12 06:33N 37°56' E 023°38'0 0.0
2014-Nov-12 05:33N 37°56' E 023°38'5 5.3
2014-Nov-12 04:33N 37°51' E 023°39'  

Dump ship's entire track history